Location: Bonneuil
(46.1010°N, 2.9693°E)
Time: 07:56:18
(UTC+00:00)

Cosmos 2208 Rocket - Visible Passes

Search period start: 11 August 2020 00:00
Search period end: 21 August 2020 00:00
Orbit: 754 x 806 km, 74.0° (Epoch: 11 August)

Date Brightness Start Highest point End Pass type
(mag) Time Alt. Az. Time Alt. Az. Time Alt. Az.
11 Aug 6.1 20:10:14 10° NNE 20:12:45 13° NE 20:15:14 10° ENE visible
11 Aug 3.9 21:50:48 10° NNW 21:56:05 73° ENE 21:56:51 62° ESE visible
11 Aug 6.1 23:34:42 10° WNW 23:37:21 15° W 23:37:21 15° W visible
12 Aug 4.4 21:17:26 10° NNW 21:22:32 48° ENE 21:23:58 38° ESE visible
12 Aug 5.6 23:00:23 10° NW 23:04:28 24° W 23:04:28 24° W visible
13 Aug 5.0 20:44:11 10° N 20:48:55 33° ENE 20:51:06 24° E visible
13 Aug 4.9 22:26:29 10° NW 22:31:16 37° WSW 22:31:36 36° WSW visible
14 Aug 5.5 20:11:04 10° N 20:15:12 23° NE 20:18:15 14° E visible
14 Aug 4.3 21:52:47 10° NNW 21:57:55 57° WSW 21:58:46 51° SW visible
15 Aug 5.9 19:38:10 10° N 19:41:24 16° NE 19:44:38 10° E visible
15 Aug 3.9 21:19:15 10° NNW 21:24:31 88° WSW 21:25:57 49° SSE visible
15 Aug 6.4 23:04:12 10° WNW 23:05:57 12° W 23:06:28 11° W visible
16 Aug 4.1 20:45:49 10° NNW 20:51:01 61° ENE 20:53:10 34° SE visible
16 Aug 5.9 22:29:16 10° NW 22:32:48 19° W 22:33:42 18° WSW visible
17 Aug 4.6 20:12:29 10° N 20:17:27 41° ENE 20:20:26 21° ESE visible
17 Aug 5.4 21:55:09 10° NW 21:59:35 29° W 22:00:57 25° SW visible
18 Aug 5.1 19:39:17 10° N 19:43:47 28° NE 19:47:44 12° ESE visible
18 Aug 4.8 21:21:21 10° NNW 21:26:17 44° WSW 21:28:15 30° SSW visible
19 Aug 4.2 20:47:43 10° NNW 20:52:55 69° WSW 20:55:35 29° S visible
20 Aug 3.9 20:14:14 10° NNW 20:19:28 78° ENE 20:22:58 21° SSE visible
20 Aug 6.4 21:58:22 10° WNW 22:01:03 14° W 22:03:29 11° WSW visible
